GW6808 Weather Reports


time (UTC)temp
C
wind
direction
speed
KPH
gust
KPH
rain 1hr
cm
rain 24hr
cm
rain mn
cm
humidity
%
barometer
mb
20260906053015 22 193 3.2 9.7 0.00 0.00 0.00 88 1016.4
20260906051519 22 221 3.2 9.7 0.00 0.00 0.00 87 1016.4
20260906050028 22 131 4.8 11.3 0.00 0.00 0.00 87 1016.4
20260906044533 23 144 4.8 14.5 0.00 0.00 0.00 87 1016.4
20260906043012 23 157 6.4 11.3 0.00 0.00 0.00 87 1016.4
20260906041516 23 160 4.8 12.9 0.00 0.00 0.00 87 1016.2
20260906040032 23 176 1.6 11.3 0.00 0.00 0.00 88 1016.2
20260906034527 23 211 3.2 11.3 0.00 0.00 0.00 87 1016.1
20260906033028 23 155 1.6 12.9 0.00 0.00 0.00 87 1016.1
20260906031531 23 164 4.8 14.5 0.00 0.00 0.00 87 1016.0
20260906030020 24 249 6.4 16.1 0.00 0.00 0.00 85 1015.9
20260906024528 24 211 4.8 19.3 0.00 0.00 0.00 84 1015.8
20260906023031 24 234 4.8 17.7 0.00 0.00 0.00 83 1015.6
20260906021530 25 148 4.8 11.3 0.00 0.00 0.00 84 1015.5
20260906020021 25 182 4.8 14.5 0.00 0.00 0.00 83 1015.5
20260906014529 25 249 4.8 14.5 0.00 0.00 0.00 82 1015.3
20260906013028 25 148 1.6 4.8 0.00 0.00 0.00 78 1014.7
20260906011531 25 157 3.2 9.7 0.00 0.00 0.00 76 1014.5
20260906010013 25 156 1.6 4.8 0.00 0.00 0.00 74 1014.3
20260906004517 25 154 1.6 4.8 0.00 0.00 0.00 73 1014.3
20260906003028 26 150 1.6 1.6 0.00 0.00 0.00 72 1013.9
20260906001533 26 150 1.6 6.4 0.00 0.00 0.00 71 1013.8
20260906000030 26 150 1.6 6.4 0.00 0.00 0.00 70 1013.8
20260905234516 26 152 1.6 6.4 0.00 0.00 0.00 69 1013.9
20260905233030 26 149 1.6 12.9 0.00 0.00 0.00 69 1014.0
20260905231526 27 143 4.8 11.3 0.00 0.00 0.00 71 1014.1
20260905230030 27 171 6.4 17.7 0.00 0.00 0.00 70 1014.3
20260905224531 28 224 8.0 17.7 0.00 0.00 0.00 68 1014.0
20260905223031 31 195 4.8 11.3 0.00 0.00 0.00 64 1013.4
20260905221510 31 135 3.2 14.5 0.00 0.00 0.00 64 1013.2
20260905220007 31 143 4.8 11.3 0.00 0.00 0.00 65 1013.3
20260905214513 31 132 1.6 1.6 0.00 0.00 0.00 67 1013.3
20260905213016 31 132 0.0 3.2 0.00 0.00 0.00 65 1013.5
20260905211539 31 137 0.0 6.4 0.00 0.00 0.00 64 1013.2
20260905210005 31 136 1.6 3.2 0.00 0.00 0.00 61 1013.5
20260905204506 31 123 0.0 8.0 0.00 0.00 0.00 62 1013.8
20260905203012 32 143 4.8 11.3 0.00 0.00 0.00 58 1013.7
20260905201517 32 126 4.8 12.9 0.00 0.00 0.00 56 1013.9
20260905200030 33 129 1.6 6.4 0.00 0.00 0.00 56 1014.0
20260905194504 33 127 1.6 4.8 0.00 0.00 0.00 56 1014.1
20260905193010 33 132 0.0 3.2 0.00 0.00 0.00 55 1014.2
20260905191516 33 120 0.0 4.8 0.00 0.00 0.00 55 1014.3
20260905190025 33 120 3.2 6.4 0.00 0.00 0.00 54 1014.6
20260905184533 32 106 1.6 6.4 0.00 0.00 0.00 55 1014.7
20260905183006 32 119 1.6 4.8 0.00 0.00 0.00 53 1015.1
20260905181512 32 147 1.6 6.4 0.00 0.00 0.00 55 1015.2
20260905180017 32 138 1.6 3.2 0.00 0.00 0.00 54 1015.2
20260905174524 31 116 1.6 9.7 0.00 0.00 0.00 55 1015.3
20260905173032 31 130 1.6 8.0 0.00 0.00 0.00 57 1015.3
20260905171523 30 77 3.2 6.4 0.00 0.00 0.00 58 1015.7
20260905170014 29 91 3.2 8.0 0.00 0.00 0.00 60 1015.8
20260905164520 28 111 1.6 6.4 0.00 0.00 0.00 61 1016.3
20260905163027 28 93 3.2 6.4 0.00 0.00 0.00 62 1016.5
20260905161505 27 105 1.6 3.2 0.00 0.00 0.00 65 1016.6
20260905160024 27 131 0.0 4.8 0.00 0.00 0.00 66 1016.6
20260905154540 28 111 1.6 6.4 0.00 0.00 0.00 63 1016.5
20260905153027 27 51 4.8 8.0 0.00 0.00 0.00 64 1016.4
20260905151505 26 41 1.6 8.0 0.00 0.00 0.00 67 1016.6
20260905150006 26 136 1.6 12.9 0.00 0.00 0.00 69 1016.4
20260905144512 25 105 4.8 9.7 0.00 0.00 0.00 70 1016.5
20260905143018 25 56 8.0 14.5 0.00 0.00 0.00 71 1016.6
20260905141525 25 128 3.2 14.5 0.00 0.00 0.00 72 1016.8
20260905140005 24 123 3.2 12.9 0.00 0.00 0.00 73 1016.9
20260905134510 24 184 3.2 12.9 0.00 0.00 0.00 73 1017.1
20260905133016 23 11 3.2 9.7 0.00 0.00 0.00 75 1017.1
20260905131523 23 155 1.6 12.9 0.00 0.00 0.00 76 1017.2
20260905130029 23 81 4.8 12.9 0.00 0.00 0.00 77 1017.1
20260905124508 22 34 3.2 11.3 0.00 0.00 0.00 77 1016.8
20260905123014 22 77 1.6 6.4 0.00 0.00 0.00 78 1016.8
20260905121519 22 76 1.6 9.7 0.00 0.00 0.00 80 1016.7
20260905120031 21 94 1.6 12.9 0.00 0.00 0.00 82 1016.7
20260905114529 21 155 1.6 11.3 0.00 0.00 0.00 82 1016.8
20260905113010 21 107 3.2 12.9 0.00 0.00 0.00 81 1016.7
20260905111518 21 56 1.6 17.7 0.00 0.00 0.00 82 1016.6
20260905110022 22 83 4.8 12.9 0.00 0.00 0.00 81 1016.6
20260905104540 22 210 3.2 22.5 0.00 0.00 0.00 79 1016.6
20260905103009 23 250 9.7 25.7 0.00 0.00 0.00 80 1016.6
20260905101512 23 270 1.6 16.1 0.00 0.00 0.00 91 1016.1
20260905100021 23 131 0.0 0.0 0.00 0.00 0.00 91 1015.4
20260905094525 23 131 0.0 0.0 0.00 0.00 0.00 91 1015.4
20260905093028 23 131 0.0 0.0 0.00 0.00 0.00 91 1015.3
20260905091512 23 131 0.0 0.0 0.00 0.00 0.00 91 1015.3
20260905090019 23 131 0.0 0.0 0.00 0.00 0.00 91 1015.2
20260905084530 23 131 0.0 0.0 0.00 0.00 0.00 90 1015.3
20260905083025 23 131 0.0 0.0 0.00 0.00 0.00 90 1015.2
20260905081530 23 131 0.0 0.0 0.00 0.00 0.00 89 1015.1
20260905080022 24 131 0.0 0.0 0.00 0.00 0.00 88 1015.1
20260905074519 24 131 0.0 0.0 0.00 0.00 0.00 88 1014.8
20260905073038 23 131 0.0 0.0 0.00 0.00 0.00 89 1014.3
20260905071504 24 131 0.0 0.0 0.00 0.00 0.00 88 1014.4
20260905070008 24 131 0.0 0.0 0.00 0.00 0.00 87 1014.4
20260905064517 24 131 0.0 0.0 0.00 0.00 0.00 86 1014.6
20260905063023 25 131 0.0 0.0 0.00 0.00 0.00 86 1014.8
20260905061538 25 122 0.0 0.0 0.00 0.00 0.00 85 1015.1
20260905060007 25 122 0.0 0.0 0.00 0.00 0.00 84 1015.2
20260905054512 25 124 0.0 0.0 0.00 0.00 0.00 84 1015.3